Spokane Fairchild, WA
on Thursday, January 3, 2013

Thursday
Previous Day Next Day
Daily Summary
 ActualAverage (KGEG)Record (KGEG)
Temperature
Mean Temperature °F 28°F  
Max Temperature 21°F 32°F 49°F (1902)
Min Temperature 6°F 23°F -12°F (1899)
Degree Days
Heating Degree Days 52 37  
Month to date heating degree days 113  
Since 1 July heating degree days 2947  
Cooling Degree Days 0 0  
Month to date cooling degree days 0  
Year to date cooling degree days 0  
Moisture
Dew Point 15°F   
Average Humidity 100    
Maximum Humidity 100    
Minimum Humidity 100    
Precipitation
Precipitation 0.00 in 0.07 in 1.04 in (1907)
Month to date precipitation 0.20  
Year to date precipitation 0.20  
Snow
Snow 0.00 in 0.40 in 8.70 in (1993)
Month to date snowfall 1.4  
Since 1 July snowfall 23.5  
Snow Depth 7.00 in   
Wind
Wind Speed 4 mph   
Max Wind Speed 8 mph   
Max Gust Speed mph   
Visibility 7 miles   
Events Fog , Snow   

Key: T is trace of precipitation, MM is missing value
Source: NWS Daily Summary
Time(PST)TemperatureDew PointHumidity Pressure Visibility Wind DirectionWind SpeedGust SpeedPrecipitationEvents Conditions
12:58 AM 16.5°F 16.5°F 100% 30.50 in 10.0 miles NNE 6.9 mph - N/A   Clear
1:58 AM 16.2°F 16.2°F 100% 30.49 in 10.0 miles NNE 5.8 mph - N/A   Clear
2:58 AM 14.7°F 14.7°F 100% 30.50 in 10.0 miles North 8.1 mph - N/A   Clear
3:58 AM 14.5°F 14.5°F 100% 30.48 in 10.0 miles North 5.8 mph - N/A   Clear
4:23 AM 15.8°F 15.8°F 100% 30.35 in 6.0 miles North 3.5 mph - N/A   Clear
4:28 AM 15.8°F 15.8°F 100% 30.35 in 3.0 miles North 3.5 mph - N/A   Clear
4:38 AM 15.8°F 15.8°F 100% 30.35 in 6.0 miles North 4.6 mph - N/A   Clear
4:48 AM 14.0°F 14.0°F 100% 30.35 in 10.0 miles NNE 5.8 mph - N/A   Clear
4:58 AM 12.7°F 12.7°F 100% 30.48 in 10.0 miles NNE 5.8 mph - N/A   Clear
5:58 AM 14.5°F 14.5°F 100% 30.47 in 10.0 miles NNE 8.1 mph - N/A   Clear
6:23 AM 14.0°F 14.0°F 100% 30.34 in 9.0 miles NE 3.5 mph - N/A   Clear
6:28 AM 14.0°F 14.0°F 100% 30.34 in 1.5 miles NE 3.5 mph - N/A   Clear
6:33 AM 14.0°F 14.0°F 100% 30.34 in 0.8 miles NE 2.3 mph - N/A   Clear
6:36 AM 12.2°F 12.2°F 100% 30.34 in 0.5 miles NE 2.3 mph - N/A Fog , Snow Light Freezing Fog
6:45 AM 10.4°F 10.4°F 100% 30.34 in 0.5 miles NE 2.3 mph - N/A Fog Light Freezing Fog
6:50 AM 8.6°F 8.6°F 100% 30.34 in 0.5 miles ENE 2.3 mph - N/A Fog Light Freezing Fog
6:55 AM 8.6°F 8.6°F 100% 30.33 in 0.5 miles ENE 2.3 mph - N/A Fog Light Freezing Fog
6:58 AM 9.3°F 9.3°F 100% 30.47 in 0.5 miles East 2.3 mph - 0.00 in Fog Light Freezing Fog
7:03 AM 8.6°F 8.6°F 100% 30.33 in 0.2 miles East 2.3 mph - N/A Fog Light Freezing Fog
7:08 AM 8.6°F 8.6°F 100% 30.33 in 0.2 miles ESE 2.3 mph - N/A Fog Light Freezing Fog
7:13 AM 8.6°F 8.6°F 100% 30.34 in 0.2 miles East 2.3 mph - N/A Fog Light Freezing Fog
7:28 AM 8.6°F 8.6°F 100% 30.34 in 0.2 miles Calm Calm - N/A Fog Light Freezing Fog
7:32 AM 8.6°F 8.6°F 100% 30.34 in 0.2 miles Calm Calm - N/A Fog , Snow Light Freezing Fog
7:37 AM 6.8°F 6.8°F 100% 30.34 in 0.2 miles Calm Calm - N/A Fog , Snow Light Freezing Fog
7:42 AM 6.8°F 6.8°F 100% 30.34 in 0.2 miles SSE 1.2 mph - N/A Fog Light Freezing Fog
7:58 AM 9.7°F 9.7°F 100% 30.48 in 0.2 miles Calm Calm - 0.00 in Fog Light Freezing Fog
8:38 AM 10.4°F 10.4°F 100% 30.34 in 0.2 miles Calm Calm - N/A Fog Light Freezing Fog
8:58 AM 11.8°F 11.8°F 100% 30.49 in 0.2 miles WNW 1.2 mph - N/A Fog Light Freezing Fog
9:08 AM 12.2°F 12.2°F 100% 30.35 in 0.2 miles Calm Calm - N/A Fog Light Freezing Fog
9:18 AM 14.0°F 14.0°F 100% 30.34 in 0.2 miles Calm Calm - N/A Fog Light Freezing Fog
9:23 AM 14.0°F 14.0°F 100% 30.35 in 0.5 miles North 2.3 mph - N/A Fog Light Freezing Fog
9:28 AM 14.0°F 14.0°F 100% 30.35 in 1.2 miles North 2.3 mph - N/A   Clear
9:33 AM 14.0°F 14.0°F 100% 30.35 in 7.0 miles North 2.3 mph - N/A   Clear
9:58 AM 14.9°F 14.9°F 100% 30.49 in 10.0 miles East 2.3 mph - N/A   Scattered Clouds
10:27 AM 15.8°F 15.8°F 100% 30.34 in 10.0 miles ENE 3.5 mph - N/A Snow Light Snow
10:55 AM 17.6°F 17.6°F 100% 30.33 in 10.0 miles NE 5.8 mph - N/A   Clear
10:58 AM 18.1°F 18.1°F 100% 30.46 in 10.0 miles NE 5.8 mph - 0.00 in   Clear
11:01 AM 17.6°F 17.6°F 100% 30.33 in 10.0 miles NE 5.8 mph - N/A Snow Light Snow
11:16 AM 17.6°F 17.6°F 100% 30.32 in 10.0 miles NNE 4.6 mph - N/A   Clear
11:58 AM 19.8°F 19.8°F 100% 30.43 in 10.0 miles NNE 5.8 mph - 0.00 in   Clear
12:58 PM 20.3°F 20.3°F 100% 30.42 in 10.0 miles North 3.5 mph - N/A   Clear
12:59 PM 19.4°F 19.4°F 100% 30.29 in 10.0 miles North 4.6 mph - N/A   Clear
1:07 PM 19.4°F 19.4°F 100% 30.29 in 10.0 miles NNE 5.8 mph - N/A   Clear
1:38 PM 21.2°F 21.2°F 100% 30.27 in 10.0 miles NE 5.8 mph - N/A   Clear
1:52 PM 21.2°F 21.2°F 100% 30.26 in 10.0 miles NNE 6.9 mph - N/A   Clear
1:58 PM 21.4°F 21.4°F 100% 30.39 in 10.0 miles NNE 5.8 mph - 0.00 in   Clear
2:58 PM 21.0°F 21.0°F 100% 30.39 in 10.0 miles NNE 5.8 mph - N/A   Clear
3:17 PM 21.2°F 21.2°F 100% 30.27 in 10.0 miles North 4.6 mph - N/A   Clear
3:27 PM 19.4°F 19.4°F 100% 30.26 in 10.0 miles North 4.6 mph - N/A   Clear
3:35 PM 19.4°F 19.4°F 100% 30.27 in 10.0 miles North 4.6 mph - N/A   Clear
3:46 PM 21.2°F 21.2°F 100% 30.26 in 10.0 miles NNW 4.6 mph - N/A   Clear
3:48 PM 21.2°F 21.2°F 100% 30.26 in 10.0 miles NNW 4.6 mph - N/A   Clear
3:58 PM 20.3°F 20.3°F 100% 30.39 in 10.0 miles North 3.5 mph - N/A   Clear
3:59 PM 21.2°F 21.2°F 100% 30.26 in 10.0 miles NNW 4.6 mph - N/A   Clear
4:09 PM 21.2°F 21.2°F 100% 30.26 in 10.0 miles North 4.6 mph - N/A   Clear
4:28 PM 19.4°F 19.4°F 100% 30.26 in 10.0 miles NNW 5.8 mph - N/A Snow Light Snow
4:49 PM 17.6°F 17.6°F 100% 30.27 in 10.0 miles NW 4.6 mph - N/A   Clear
4:58 PM 18.0°F 18.0°F 100% 30.40 in 10.0 miles NW 5.8 mph - 0.00 in   Clear
5:05 PM 14.0°F 14.0°F 100% 30.26 in 10.0 miles NNW 4.6 mph - N/A Snow Light Snow
5:15 PM 17.6°F 17.6°F 100% 30.26 in 10.0 miles North 4.6 mph - N/A   Clear
5:25 PM 14.0°F 14.0°F 100% 30.27 in 10.0 miles Calm Calm - N/A Snow Light Snow
5:28 PM 14.0°F 14.0°F 100% 30.27 in 10.0 miles Calm Calm - N/A   Clear
5:58 PM 14.5°F 14.5°F 100% 30.40 in 10.0 miles SSE 2.3 mph - N/A   Clear
6:08 PM 14.0°F 14.0°F 100% 30.27 in 10.0 miles South 2.3 mph - N/A Snow Light Snow
6:30 PM 10.4°F 10.4°F 100% 30.27 in 10.0 miles WSW 5.8 mph - N/A   Clear
6:43 PM 12.2°F 12.2°F 100% 30.27 in 10.0 miles NW 2.3 mph - N/A Snow Light Snow
6:58 PM 12.0°F 12.0°F 100% 30.42 in 10.0 miles Calm Calm - N/A   Clear
6:59 PM 14.0°F 14.0°F 100% 30.27 in 10.0 miles Calm Calm - N/A   Clear
7:58 PM 14.9°F 14.9°F 100% 30.40 in 10.0 miles Calm Calm - N/A   Clear
8:18 PM 14.0°F 14.0°F 100% 30.26 in 2.5 miles ESE 1.2 mph - N/A   Clear
8:23 PM 14.0°F 14.0°F 100% 30.26 in 3.0 miles ENE 1.2 mph - N/A   Clear
8:28 PM 14.0°F 14.0°F 100% 30.26 in 2.5 miles Calm Calm - N/A   Clear
8:33 PM 14.0°F 14.0°F 100% 30.26 in 6.0 miles Calm Calm - N/A   Clear
8:48 PM 14.0°F 14.0°F 100% 30.26 in 1.5 miles ESE 3.5 mph - N/A   Clear
8:53 PM 12.2°F 12.2°F 100% 30.26 in 1.2 miles SE 2.3 mph - N/A   Clear
8:58 PM 12.2°F 12.2°F 100% 30.41 in 1.5 miles SE 2.3 mph - N/A   Clear
9:08 PM 14.0°F 14.0°F 100% 30.27 in 1.2 miles Calm Calm - N/A   Clear
9:13 PM 14.0°F 14.0°F 100% 30.27 in 1.5 miles Calm Calm - N/A   Clear
9:18 PM 14.0°F 14.0°F 100% 30.27 in 5.0 miles SE 2.3 mph - N/A   Clear
9:49 PM 12.2°F 12.2°F 100% 30.28 in 10.0 miles North - - N/A Snow Light Snow
9:58 PM 13.1°F 13.1°F 100% 30.43 in 7.0 miles SSW 3.5 mph - 0.00 in Snow Light Snow
10:17 PM 14.0°F 14.0°F 100% 30.29 in 10.0 miles South 3.5 mph - N/A   Clear
10:58 PM 15.8°F 15.8°F 100% 30.42 in 10.0 miles North - - 0.00 in   Mostly Cloudy
11:44 PM 15.8°F 15.8°F 100% 30.29 in 10.0 miles SSE 5.8 mph - N/A Snow Light Snow
11:57 PM 15.8°F 15.8°F 100% 30.30 in 10.0 miles SSE 6.9 mph - N/A   Overcast
11:58 PM 16.5°F 16.5°F 100% 30.43 in 10.0 miles North - - 0.00 in   Overcast
11:59 PM 15.8°F 15.8°F 100% 30.30 in 10.0 miles SE 5.8 mph - N/A   Light Freezing Drizzle
Moon Phase
Jan. 03 Jan. 04 Jan. 11 Jan. 18 Jan. 26
Sunrise:07:38 AM (PST) Moon Rise:11:24 PM (PST)1/3
Sunset:04:12 PM (PST) Moon Set:10:23 AM (PST)1/3

Copyright © 2014 The Weather Underground, Inc.